Location: Newark
(51.0000°N, 11.4100°E)
Time: 07:34:30
(UTC+00:00)

N. Korean satellite - Pass Details

Date: 26 October 2019
Orbit: 456 x 506 km, 97.2° (Epoch: 16 November)

Event Time Altitude Azimuth Distance (km) Brightness Sun altitude
Rises 17:35:23 0° 220° (SW) 2,479 10.8 -15.5°
Reaches altitude 10° 17:39:19 10° 266° (W) 1,625 10.6 -16.1°
Maximum altitude 17:39:45 10° 273° (W) 1,616 10.6 -16.2°
Drops below altitude 10° 17:40:11 10° 281° (W) 1,629 10.5 -16.3°
Sets 17:44:12 0° 327° (NNW) 2,531 10.7 -16.9°
